Time,TemperatureF,DewpointF,PressureIn,WindDirection,WindDirectionDegrees,WindSpeedMPH,WindSpeedGustMPH,Humidity,HourlyPrecipIn,Conditions,Clouds,dailyrainin,SoftwareType,DateUTC
2013-08-27 00:05:00,79.0,73.0,29.91,North,0,0.0,-999.0,83,-99.99,,,-99.99,,2013-08-27 05:05:00,
2013-08-27 00:23:00,79.0,73.0,29.91,North,0,0.0,-999.0,83,-99.99,,,-99.99,,2013-08-27 05:23:00,
2013-08-27 00:43:00,79.0,72.0,29.91,North,0,0.0,-999.0,78,-99.99,,,-99.99,,2013-08-27 05:43:00,
2013-08-27 01:22:00,79.0,72.0,29.91,North,0,0.0,-999.0,78,-99.99,,,-99.99,,2013-08-27 06:22:00,
2013-08-27 01:42:00,79.0,72.0,29.91,SE,130,5.0,-999.0,78,-99.99,,,-99.99,,2013-08-27 06:42:00,
2013-08-27 01:52:00,79.0,70.0,29.90,SSE,150,6.0,-999.0,73,-99.99,,,-99.99,,2013-08-27 06:52:00,
2013-08-27 02:02:00,79.0,70.0,29.90,SSE,150,6.0,-999.0,73,-99.99,,,-99.99,,2013-08-27 07:02:00,
2013-08-27 02:21:00,79.0,70.0,29.90,SSE,150,6.0,-999.0,73,-99.99,,,-99.99,,2013-08-27 07:21:00,
2013-08-27 02:42:00,79.0,70.0,29.90,SSE,160,5.0,-999.0,73,-99.99,,,-99.99,,2013-08-27 07:42:00,
2013-08-27 02:52:00,79.0,70.0,29.89,SSE,160,6.0,-999.0,73,-99.99,,,-99.99,,2013-08-27 07:52:00,
2013-08-27 03:02:00,79.0,70.0,29.89,SSE,160,6.0,-999.0,73,-99.99,,,-99.99,,2013-08-27 08:02:00,
2013-08-27 03:22:00,77.0,70.0,29.89,South,170,6.0,-999.0,78,-99.99,,,-99.99,,2013-08-27 08:22:00,
2013-08-27 03:42:00,77.0,70.0,29.88,South,170,5.0,-999.0,78,-99.99,,,-99.99,,2013-08-27 08:42:00,
2013-08-27 04:21:00,75.0,68.0,29.88,North,0,0.0,-999.0,78,-99.99,,,-99.99,,2013-08-27 09:21:00,
2013-08-27 04:43:00,75.0,68.0,29.88,South,180,5.0,-999.0,78,-99.99,,,-99.99,,2013-08-27 09:43:00,
2013-08-27 04:54:00,75.0,68.0,29.88,South,190,6.0,-999.0,78,-99.99,,,-99.99,,2013-08-27 09:54:00,
2013-08-27 05:05:00,75.0,68.0,29.88,South,190,6.0,-999.0,78,-99.99,,,-99.99,,2013-08-27 10:05:00,
2013-08-27 05:14:00,75.0,68.0,29.88,South,190,6.0,-999.0,78,-99.99,,,-99.99,,2013-08-27 10:14:00,
2013-08-27 05:25:00,75.0,68.0,29.88,South,190,6.0,-999.0,78,-99.99,,,-99.99,,2013-08-27 10:25:00,
2013-08-27 05:43:00,73.0,68.0,29.88,South,180,6.0,-999.0,83,-99.99,,,-99.99,,2013-08-27 10:43:00,
2013-08-27 06:12:00,73.0,68.0,29.88,South,190,6.0,-999.0,83,-99.99,,,-99.99,,2013-08-27 11:12:00,
2013-08-27 06:22:00,73.0,68.0,29.88,South,190,6.0,-999.0,83,-99.99,,,-99.99,,2013-08-27 11:22:00,
2013-08-27 06:42:00,73.0,68.0,29.88,North,0,0.0,-999.0,83,-99.99,,,-99.99,,2013-08-27 11:42:00,
2013-08-27 07:21:00,72.0,66.0,29.89,North,0,0.0,-999.0,83,-99.99,,,-99.99,,2013-08-27 12:21:00,
2013-08-27 07:42:00,72.0,68.0,29.89,North,0,0.0,-999.0,88,-99.99,,,-99.99,,2013-08-27 12:42:00,
2013-08-27 08:22:00,75.0,68.0,29.89,SSW,200,7.0,-999.0,78,-99.99,,,-99.99,,2013-08-27 13:22:00,
2013-08-27 08:42:00,77.0,70.0,29.90,SSW,210,7.0,-999.0,78,-99.99,,,-99.99,,2013-08-27 13:42:00,
2013-08-27 09:11:00,79.0,70.0,29.90,SSW,210,7.0,-999.0,73,-99.99,,,-99.99,,2013-08-27 14:11:00,
2013-08-27 09:22:00,79.0,70.0,29.90,SSW,210,7.0,-999.0,73,-99.99,,,-99.99,,2013-08-27 14:22:00,
2013-08-27 09:42:00,81.0,70.0,29.90,SW,220,5.0,-999.0,69,-99.99,,,-99.99,,2013-08-27 14:42:00,
2013-08-27 10:22:00,81.0,70.0,29.90,SW,220,8.0,-999.0,69,-99.99,,,-99.99,,2013-08-27 15:22:00,
2013-08-27 10:45:00,82.0,70.0,29.90,SW,230,8.0,-999.0,65,-99.99,,,-99.99,,2013-08-27 15:45:00,
2013-08-27 11:28:00,84.0,72.0,29.91,WSW,240,8.0,-999.0,65,-99.99,,,-99.99,,2013-08-27 16:28:00,
2013-08-27 11:46:00,84.0,72.0,29.92,SW,230,7.0,-999.0,65,-99.99,,,-99.99,,2013-08-27 16:46:00,
2013-08-27 11:55:00,84.0,73.0,29.92,SW,220,8.0,-999.0,70,-99.99,,,-99.99,,2013-08-27 16:55:00,
2013-08-27 12:04:00,84.0,73.0,29.92,SW,220,8.0,-999.0,70,-99.99,,,-99.99,,2013-08-27 17:04:00,
2013-08-27 12:23:00,86.0,72.0,29.92,WSW,240,5.0,-999.0,62,-99.99,,,-99.99,,2013-08-27 17:23:00,
2013-08-27 12:35:00,86.0,72.0,29.92,WSW,240,5.0,-999.0,62,-99.99,,,-99.99,,2013-08-27 17:35:00,
2013-08-27 12:43:00,86.0,72.0,29.92,WSW,240,5.0,-999.0,62,-99.99,,,-99.99,,2013-08-27 17:43:00,
2013-08-27 12:52:00,86.0,72.0,29.92,WSW,240,5.0,-999.0,62,-99.99,,,-99.99,,2013-08-27 17:52:00,
2013-08-27 13:52:00,88.0,73.0,29.91,West,260,6.0,-999.0,62,-99.99,,,-99.99,,2013-08-27 18:52:00,
2013-08-27 14:42:00,90.0,75.0,29.91,South,170,8.0,-999.0,62,-99.99,,,-99.99,,2013-08-27 19:42:00,
2013-08-27 14:52:00,90.0,75.0,29.91,South,170,8.0,-999.0,62,-99.99,,,-99.99,,2013-08-27 19:52:00,
2013-08-27 15:02:00,90.0,75.0,29.91,South,170,8.0,-999.0,62,-99.99,,,-99.99,,2013-08-27 20:02:00,